PACCTY-2 Weather Reports


Display with metric or nautical units.
time (UTC)temp
F
wind
direction
speed
MPH
gust
MPH
rain 1hr
in
rain 24hr
in
rain mn
in
humidity
%
barometer
mb
20240621202436 55 338 15.0 21.0 0.00 0.00 0.00 1009.1
20240621201935 55 320 16.0 21.0 0.00 0.00 0.00 1009.2
20240621201434 55 333 16.0 21.0 0.00 0.00 0.00 1009.3
20240621200933 55 334 15.0 21.0 0.00 0.00 0.00 1009.2
20240621200432 54 336 16.0 21.0 0.00 0.00 0.00 1009.2
20240621195931 54 317 15.0 21.0 0.00 0.00 0.00 1009.2
20240621195430 54 327 17.0 21.0 0.00 0.00 0.00 1009.1
20240621194929 54 327 17.0 20.0 0.00 0.00 0.00 1009.0
20240621193427 54 326 15.0 21.0 0.00 0.00 0.00 1009.0
20240621192925 54 326 14.0 18.0 0.00 0.00 0.00 1009.0
20240621192424 54 327 14.0 17.0 0.00 0.00 0.00 1009.0
20240621191923 54 336 13.0 16.0 0.00 0.00 0.00 1009.1
20240621190921 54 326 15.0 21.0 0.00 0.00 0.00 1008.9
20240621185919 55 344 17.0 19.0 0.00 0.00 0.00 1008.8
20240621185418 54 338 15.0 18.0 0.00 0.00 0.00 1008.7
20240621184916 54 341 15.0 18.0 0.00 0.00 0.00 1008.6
20240621184416 54 326 13.0 16.0 0.00 0.00 0.00 1008.5
20240621183915 54 322 11.0 14.0 0.00 0.00 0.00 1008.6
20240621183414 54 340 10.0 13.0 0.00 0.00 0.00 1008.5
20240621182913 54 333 10.0 13.0 0.00 0.00 0.00 1008.4
20240621181911 54 330 11.0 13.0 0.00 0.00 0.00 1008.5
20240621181410 54 336 10.0 13.0 0.00 0.00 0.00 1008.6
20240621180909 54 327 11.0 15.0 0.00 0.00 0.00 1008.7
20240621180408 54 340 12.0 15.0 0.00 0.00 0.00 1008.7
20240621175907 54 340 12.0 15.0 0.00 0.00 0.00 1008.8
20240621175406 53 355 10.0 13.0 0.00 0.00 0.00 1008.9
20240621174904 53 330 10.0 13.0 0.00 0.00 0.00 1008.9
20240621174404 53 351 10.0 13.0 0.00 0.00 0.00 1008.9
20240621173903 53 347 9.0 10.0 0.00 0.00 0.00 1009.0
20240621173402 53 354 8.0 10.0 0.00 0.00 0.00 1009.0
20240621172946 53 329 9.0 11.0 0.00 0.00 0.00 1009.0
20240621172901 53 329 9.0 11.0 0.00 0.00 0.00 1009.0
20240621172400 52 345 8.0 11.0 0.00 0.00 0.00 1009.0
20240621170857 52 338 7.0 10.0 0.00 0.00 0.00 1009.1
20240621170358 52 333 7.0 11.0 0.00 0.00 0.00 1008.9
20240621170029 52 352 8.0 11.0 0.00 0.00 0.00 1008.9
20240621165855 52 352 8.0 11.0 0.00 0.00 0.00 1008.9
20240621165355 52 352 8.0 11.0 0.00 0.00 0.00 1008.8
20240621164853 52 348 10.0 11.0 0.00 0.00 0.00 1008.8
20240621164353 52 308 4.0 10.0 0.00 0.00 0.00 1008.9
20240621163350 51 333 8.0 11.0 0.00 0.00 0.00 1008.8
20240621162849 51 337 8.0 11.0 0.00 0.00 0.00 1008.8
20240621162348 51 341 9.0 11.0 0.00 0.00 0.00 1008.8
20240621161846 52 0 8.0 10.0 0.00 0.00 0.00 1008.8
20240621161544 52 347 8.0 10.0 0.00 0.00 0.00 1008.7
20240621161346 52 347 8.0 10.0 0.00 0.00 0.00 1008.7
20240621160845 52 331 0.0 6.0 0.00 0.00 0.00 1008.7
20240621155342 51 327 0.0 6.0 0.00 0.00 0.00 1008.8
20240621154840 52 285 4.0 6.0 0.00 0.00 0.00 1008.8
20240621154340 52 308 2.0 5.0 0.00 0.00 0.00 1008.9
20240621153838 52 0 0.0 6.0 0.00 0.00 0.00 1008.8
20240621153338 51 0 0.0 6.0 0.00 0.00 0.00 1008.6
20240621152837 51 323 0.0 6.0 0.00 0.00 0.00 1008.5
20240621151834 51 354 2.0 7.0 0.00 0.00 0.00 1008.4
20240621150332 51 341 4.0 7.0 0.00 0.00 0.00 1008.5
20240621145831 51 7 5.0 7.0 0.00 0.00 0.00 1008.4
20240621144830 51 337 5.0 7.0 0.00 0.00 0.00 1008.4
20240621143826 51 322 0.0 5.0 0.00 0.00 0.00 1008.3
20240621142824 52 331 0.0 3.0 0.00 0.00 0.00 1008.3
20240621141823 52 5 0.0 6.0 0.00 0.00 0.00 1008.1
20240621141322 51 357 3.0 6.0 0.00 0.00 0.00 1008.3
20240621140821 52 322 3.0 5.0 0.00 0.00 0.00 1008.4
20240621140412 52 0 0.0 0.0 0.00 0.00 0.00 1008.3
20240621140319 52 0 0.0 0.0 0.00 0.00 0.00 1008.3
20240621135819 52 0 0.0 0.0 0.00 0.00 0.00 1008.4
20240621134816 52 0 0.0 0.0 0.00 0.00 0.00 1008.2
20240621133815 52 0 0.0 0.0 0.00 0.00 0.00 1008.2
20240621133314 52 0 0.0 0.0 0.00 0.00 0.00 1008.2
20240621131810 52 0 0.0 0.0 0.00 0.00 0.00 1008.1
20240621130308 52 0 0.0 0.0 0.00 0.00 0.00 1008.2
20240621125306 52 0 0.0 2.0 0.00 0.00 0.00 1008.3
20240621124304 52 5 0.0 2.0 0.00 0.00 0.00 1008.3
20240621123802 52 0 0.0 0.0 0.00 0.00 0.00 1008.2
20240621123302 52 0 0.0 0.0 0.00 0.00 0.00 1008.1
20240621121759 52 0 0.0 4.0 0.00 0.00 0.00 1008.1
20240621121259 52 22 0.0 4.0 0.00 0.00 0.00 1008.2
20240621120757 51 0 0.0 0.0 0.00 0.00 0.00 1008.2
20240621120257 51 0 0.0 0.0 0.00 0.00 0.00 1008.2
20240621114752 51 354 0.0 7.0 0.00 0.00 0.00 1008.3
20240621114251 51 345 5.0 6.0 0.00 0.00 0.00 1008.2
20240621113750 52 0 0.0 0.0 0.00 0.00 0.00 1008.1
20240621113249 52 0 0.0 0.0 0.00 0.00 0.00 1007.9
20240621112748 52 0 0.0 0.0 0.00 0.00 0.00 1007.8
20240621112247 52 0 0.0 0.0 0.00 0.00 0.00 1007.8
20240621111746 52 0 0.0 0.0 0.00 0.00 0.00 1007.8
20240621111246 52 0 0.0 0.0 0.00 0.00 0.00 1007.8
20240621110244 53 0 0.0 0.0 0.00 0.00 0.00 1007.9
20240621105742 53 0 0.0 0.0 0.00 0.00 0.00 1007.9
20240621104239 53 0 0.0 5.0 0.00 0.00 0.00 1007.8
20240621103738 53 72 0.0 5.0 0.00 0.00 0.00 1007.9
20240621103237 53 0 1.0 4.0 0.00 0.00 0.00 1007.9
20240621102736 52 0 0.0 0.0 0.00 0.00 0.00 1007.8
20240621101734 52 0 0.0 0.0 0.00 0.00 0.00 1007.9
20240621101233 52 0 0.0 0.0 0.00 0.00 0.00 1007.9
20240621100732 53 15 0.0 5.0 0.00 0.00 0.00 1007.9
20240621100231 53 28 0.0 5.0 0.00 0.00 0.00 1007.9
20240621094228 53 0 0.0 0.0 0.00 0.00 0.00 1008.0
20240621093726 53 0 0.0 0.0 0.00 0.00 0.00 1008.0
20240621092724 53 0 0.0 0.0 0.00 0.00 0.00 1008.1
20240621092223 53 0 0.0 4.0 0.00 0.00 0.00 1008.1
20240621091722 53 0 0.0 4.0 0.00 0.00 0.00 1008.1
20240621091221 53 61 0.0 4.0 0.00 0.00 0.00 1008.1
20240621090720 53 81 0.0 3.0 0.00 0.00 0.00 1008.2
20240621090219 53 0 1.0 3.0 0.00 0.00 0.00 1008.2
20240621085718 53 42 0.0 3.0 0.00 0.00 0.00 1008.2
20240621085217 53 0 0.0 4.0 0.00 0.00 0.00 1008.4
20240621084215 53 82 0.0 4.0 0.00 0.00 0.00 1008.3
20240621083714 53 0 3.0 3.0 0.00 0.00 0.00 1008.4
20240621083214 52 0 0.0 4.0 0.00 0.00 0.00 1008.4
20240621082213 52 40 0.0 4.0 0.00 0.00 0.00 1008.5
20240621081710 52 0 0.0 0.0 0.00 0.00 0.00 1008.5
20240621081209 52 0 0.0 0.0 0.00 0.00 0.00 1008.5
20240621080708 52 352 0.0 7.0 0.00 0.00 0.00 1008.6
20240621080208 52 0 1.0 7.0 0.00 0.00 0.00 1008.6
20240621074204 53 0 2.0 4.0 0.00 0.00 0.00 1008.8
20240621073704 52 0 0.0 4.0 0.00 0.00 0.00 1008.8
20240621073202 52 49 0.0 4.0 0.00 0.00 0.00 1008.8
20240621072200 52 0 0.0 0.0 0.00 0.00 0.00 1008.7
20240621071658 52 0 0.0 0.0 0.00 0.00 0.00 1008.6
20240621071157 52 0 0.0 0.0 0.00 0.00 0.00 1008.6
20240621070155 52 0 0.0 0.0 0.00 0.00 0.00 1008.6
20240621065654 52 0 0.0 0.0 0.00 0.00 0.00 1008.6
20240621065153 52 0 0.0 4.0 0.00 0.00 0.00 1008.6
20240621064652 52 0 0.0 4.0 0.00 0.00 0.00 1008.6
20240621064151 52 326 0.0 4.0 0.00 0.00 0.00 1008.6
20240621063650 52 322 2.0 4.0 0.00 0.00 0.00 1008.7
20240621063149 52 0 0.0 1.0 0.00 0.00 0.00 1008.6
20240621062648 52 12 0.0 5.0 0.00 0.00 0.00 1008.7
20240621061646 52 357 2.0 5.0 0.00 0.00 0.00 1008.7
20240621061145 52 5 4.0 4.0 0.00 0.00 0.00 1008.7
20240621055141 52 355 0.0 5.0 0.00 0.00 0.00 1008.7
20240621054640 52 4 2.0 5.0 0.00 0.00 0.00 1008.8
20240621054139 52 0 0.0 0.0 0.00 0.00 0.00 1008.7
20240621053638 52 8 0.0 6.0 0.00 0.00 0.00 1008.7
20240621053137 52 1 0.0 6.0 0.00 0.00 0.00 1008.6
20240621052637 52 7 4.0 6.0 0.00 0.00 0.00 1008.6
20240621052135 53 348 4.0 5.0 0.00 0.00 0.00 1008.6
20240621051634 53 355 4.0 5.0 0.00 0.00 0.00 1008.6
20240621051133 53 7 3.0 7.0 0.00 0.00 0.00 1008.6
20240621050632 53 2 3.0 7.0 0.00 0.00 0.00 1008.6
20240621045630 53 19 5.0 9.0 0.00 0.00 0.00 1008.6
20240621045129 53 1 5.0 9.0 0.00 0.00 0.00 1008.6
20240621044128 53 7 8.0 8.0 0.00 0.00 0.00 1008.5
20240621043626 53 2 6.0 11.0 0.00 0.00 0.00 1008.4
20240621043125 53 1 9.0 11.0 0.00 0.00 0.00 1008.3
20240621042625 53 351 9.0 11.0 0.00 0.00 0.00 1008.3
20240621042123 53 8 10.0 12.0 0.00 0.00 0.00 1008.3
20240621041122 53 351 8.0 12.0 0.00 0.00 0.00 1008.2
20240621040620 53 341 9.0 13.0 0.00 0.00 0.00 1008.2
20240621040119 53 331 10.0 13.0 0.00 0.00 0.00 1008.1
20240621035117 54 11 11.0 16.0 0.00 0.00 0.00 1008.0
20240621034616 54 334 11.0 16.0 0.00 0.00 0.00 1008.1
20240621032614 54 341 11.0 17.0 0.00 0.00 0.00 1008.1
20240621032112 54 340 13.0 17.0 0.00 0.00 0.00 1008.1
20240621031111 54 338 14.0 16.0 0.00 0.00 0.00 1008.1
20240621030608 54 341 12.0 14.0 0.00 0.00 0.00 1008.1
20240621030107 54 331 10.0 13.0 0.00 0.00 0.00 1008.1
20240621025607 53 330 11.0 13.0 0.00 0.00 0.00 1008.1
20240621025105 53 331 9.0 10.0 0.00 0.00 0.00 1008.1
20240621024605 53 337 8.0 8.0 0.00 0.00 0.00 1008.0
20240621023101 54 317 7.0 11.0 0.00 0.00 0.00 1008.0
20240621022603 54 337 7.0 12.0 0.00 0.00 0.00 1008.0
20240621022059 54 319 8.0 12.0 0.00 0.00 0.00 1008.0
20240621020557 55 310 9.0 12.0 0.00 0.00 0.00 1007.9
20240621020055 55 326 9.0 16.0 0.00 0.00 0.00 1008.0
20240621015554 55 338 9.0 16.0 0.00 0.00 0.00 1008.1
20240621014552 55 330 11.0 15.0 0.00 0.00 0.00 1008.1
20240621013550 55 327 13.0 17.0 0.00 0.00 0.00 1008.2
20240621012548 55 330 15.0 20.0 0.00 0.00 0.00 1008.1
20240621012047 55 337 16.0 20.0 0.00 0.00 0.00 1008.1
20240621011045 55 326 15.0 19.0 0.00 0.00 0.00 1008.3
20240621010544 55 327 15.0 19.0 0.00 0.00 0.00 1008.2
20240621004541 55 336 13.0 19.0 0.00 0.00 0.00 1008.5
20240621004039 55 336 12.0 19.0 0.00 0.00 0.00 1008.5
20240621003538 55 333 14.0 20.0 0.00 0.00 0.00 1008.5
20240621003037 55 331 15.0 20.0 0.00 0.00 0.00 1008.4
20240621002536 55 331 15.0 20.0 0.00 0.00 0.00 1008.4
20240621002035 55 337 15.0 19.0 0.00 0.00 0.00 1008.5
20240621001534 55 336 15.0 19.0 0.00 0.00 0.00 1008.5
20240621001033 55 327 15.0 18.0 0.00 0.00 0.00 1008.6
20240621000532 55 326 12.0 14.0 0.00 0.00 0.00 1008.7
20240620235530 55 329 9.0 13.0 0.00 0.00 0.00 1008.9
20240620234528 55 327 8.0 10.0 0.00 0.00 0.00 1008.9
20240620234027 55 334 8.0 16.0 0.00 0.00 0.00 1008.9
20240620233526 56 322 11.0 16.0 0.00 0.00 0.00 1008.9
20240620233025 56 330 9.0 16.0 0.00 0.00 0.00 1008.9
20240620232024 55 330 9.0 16.0 0.00 0.00 0.00 1009.0
20240620231522 55 330 8.0 16.0 0.00 0.00 0.00 1009.1
20240620230521 55 347 13.0 15.0 0.00 0.00 0.00 1009.1
20240620225017 55 323 10.0 13.0 0.00 0.00 0.00 1009.3
20240620224516 55 336 10.0 13.0 0.00 0.00 0.00 1009.2
20240620223014 55 330 9.0 12.0 0.00 0.00 0.00 1009.3
20240620222512 55 315 8.0 12.0 0.00 0.00 0.00 1009.3
20240620222011 55 315 8.0 11.0 0.00 0.00 0.00 1009.2
20240620221009 55 308 8.0 13.0 0.00 0.00 0.00 1009.1
20240620220509 55 316 9.0 13.0 0.00 0.00 0.00 1009.1
20240620220007 56 329 9.0 11.0 0.00 0.00 0.00 1009.2
20240620214504 55 329 8.0 10.0 0.00 0.00 0.00 1009.3
20240620213502 55 322 8.0 14.0 0.00 0.00 0.00 1009.3
20240620213001 55 326 7.0 14.0 0.00 0.00 0.00 1009.3
20240620212501 55 327 8.0 14.0 0.00 0.00 0.00 1009.4
20240620210957 55 317 8.0 11.0 0.00 0.00 0.00 1009.4
20240620204954 55 327 7.0 10.0 0.00 0.00 0.00 1009.4
20240620204452 55 333 7.0 10.0 0.00 0.00 0.00 1009.5